| time (UTC) | temp F | wind direction | speed knots | gust knots | rain 1hr in | rain 24hr in | rain mn in | humidity % | barometer mb |
| 20260505003108 | 63 | 270 | 9.6 | 16.5 | 0.00 | 0.00 | 0.00 | 66 | 1014.1 |
| 20260505000128 | 62 | 248 | 9.6 | 16.5 | 0.00 | 0.00 | 0.00 | 68 | 1014.1 |
| 20260504233108 | 63 | 270 | 10.4 | 17.4 | 0.00 | 0.00 | 0.00 | 67 | 1014.1 |
| 20260504230108 | 64 | 248 | 10.4 | 17.4 | 0.00 | 0.00 | 0.00 | 65 | 1014.3 |
| 20260504223108 | 64 | 248 | 11.3 | 19.1 | 0.00 | 0.00 | 0.00 | 63 | 1014.2 |
| 20260504220108 | 64 | 248 | 12.2 | 21.7 | 0.00 | 0.00 | 0.00 | 63 | 1014.5 |
| 20260504213108 | 64 | 248 | 12.2 | 20.0 | 0.00 | 0.00 | 0.00 | 65 | 1014.8 |
| 20260504210108 | 64 | 248 | 10.4 | 18.2 | 0.00 | 0.00 | 0.00 | 64 | 1014.8 |
| 20260504203108 | 64 | 248 | 9.6 | 19.1 | 0.00 | 0.00 | 0.00 | 65 | 1014.8 |
| 20260504200108 | 63 | 270 | 8.7 | 17.4 | 0.00 | 0.00 | 0.00 | 65 | 1015.1 |
| 20260504193128 | 62 | 248 | 9.6 | 15.6 | 0.00 | 0.00 | 0.00 | 65 | 1015.2 |
| 20260504190108 | 62 | 248 | 8.7 | 13.9 | 0.00 | 0.00 | 0.00 | 68 | 1015.2 |
| 20260504183107 | 61 | 248 | 7.0 | 14.8 | 0.00 | 0.00 | 0.00 | 69 | 1015.5 |
| 20260504180108 | 61 | 248 | 5.2 | 12.2 | 0.00 | 0.00 | 0.00 | 70 | 1015.4 |
| 20260504173107 | 60 | 248 | 5.2 | 12.2 | 0.00 | 0.00 | 0.00 | 74 | 1015.2 |
| 20260504170108 | 59 | 248 | 4.3 | 10.4 | 0.00 | 0.00 | 0.00 | 75 | 1015.1 |
| 20260504160107 | 58 | 248 | 3.5 | 9.6 | 0.00 | 0.00 | 0.00 | 76 | 1015.1 |
| 20260504150107 | 58 | 270 | 1.7 | 7.0 | 0.00 | 0.00 | 0.00 | 79 | 1014.7 |
| 20260504140107 | 55 | 248 | 2.6 | 5.2 | 0.00 | 0.00 | 0.00 | 84 | 1014.3 |
| 20260504130128 | 55 | 270 | 2.6 | 6.1 | 0.00 | 0.00 | 0.00 | 84 | 1014.2 |
| 20260504120107 | 55 | 270 | 1.7 | 6.1 | 0.00 | 0.00 | 0.00 | 83 | 1014.0 |
| 20260504110106 | 56 | 270 | 6.1 | 11.3 | 0.00 | 0.00 | 0.00 | 83 | 1014.0 |
| 20260504100107 | 56 | 248 | 3.5 | 9.6 | 0.00 | 0.00 | 0.00 | 85 | 1013.8 |
| 20260504090107 | 56 | 270 | 5.2 | 10.4 | 0.00 | 0.00 | 0.00 | 84 | 1014.0 |
| 20260504080106 | 57 | 270 | 5.2 | 10.4 | 0.00 | 0.00 | 0.00 | 83 | 1014.7 |
| 20260504070106 | 58 | 248 | 5.2 | 8.7 | 0.00 | 0.00 | 0.00 | 81 | 1015.3 |
| 20260504060126 | 57 | 0.0 | 3.5 | 0.00 | 0.00 | 0.00 | 82 | 1014.1 | |
| 20260504050106 | 57 | 225 | 2.6 | 5.2 | 0.00 | 0.00 | 0.00 | 81 | 1014.3 |
| 20260504043106 | 57 | 225 | 1.7 | 4.3 | 0.00 | 0.00 | 0.00 | 79 | 1014.0 |
| 20260504040106 | 57 | 248 | 5.2 | 9.6 | 0.00 | 0.00 | 0.00 | 78 | 1013.5 |
| 20260504033107 | 58 | 248 | 6.1 | 10.4 | 0.00 | 0.00 | 0.00 | 78 | 1013.8 |
| 20260504030107 | 59 | 248 | 6.1 | 9.6 | 0.00 | 0.00 | 0.00 | 75 | 1013.5 |
| 20260504023107 | 59 | 248 | 7.8 | 13.9 | 0.00 | 0.00 | 0.00 | 74 | 1013.4 |
| 20260504020145 | 59 | 248 | 10.4 | 16.5 | 0.00 | 0.00 | 0.00 | 74 | 1013.1 |
| 20260504013105 | 60 | 248 | 10.4 | 15.6 | 0.00 | 0.00 | 0.00 | 72 | 1013.3 |
| 20260504010106 | 62 | 248 | 10.4 | 16.5 | 0.00 | 0.00 | 0.00 | 69 | 1012.9 |